Tacoma Narrows, WA

5:51 AM PST on January 21, 2018 (GMT -0800)
Tacoma Narrows

Weather History for KTIW - September, 2012

Change the Weather History Date:

Monday, September 3, 2012

  Actual Average Record
Temperature  
Mean Temperature 60 °F -  
Max Temperature 71 °F 69 °F 86 °F (2003)
Min Temperature 51 °F 52 °F 48 °F (1999)
Degree Days  
Heating Degree Days 4    
Growing Degree Days 10 (Base 50)    
Moisture  
Dew Point 49 °F    
Average Humidity 69    
Maximum Humidity 94    
Minimum Humidity 47    
Precipitation  
Precipitation 0.00 in - - ()
Sea Level Pressure  
Sea Level Pressure 30.16 in    
Wind  
Wind Speed 3 mph (NNE)    
Max Wind Speed 13 mph    
Max Gust Speed 17 mph    
Visibility 9 miles    
Events      
Averages and records for this station are not official NWS values.
T = Trace of Precipitation, MM = Missing Value Source: NWS Daily Summary

Daily Weather History Graph

Daily Weather History Graph

Search for Another Location

Airport or City:

Trip Planner

Search our weather history database for the weather conditions in past years. The results will help you decide how hot, cold, wet, or windy it might be!

Date:

Astronomy

Sep. 03, 2012 Rise Set
Actual Time 6:32 AM PDT 7:45 PM PDT
Civil Twilight 6:01 AM PDT 8:16 PM PDT
Nautical Twilight 5:23 AM PDT 8:54 PM PDT
Astronomical Twilight 4:42 AM PDT 9:34 PM PDT
Moon 8:47 PM PDT (9/3) 10:04 AM PDT (9/3)
Length of Visible Light 14h 15m
Length of Day
13h 12m
Waning Gibbous, 90% of the Moon is Illuminated
Sep 3
Waning Gibbous
Sep 8
Last Quarter
Sep 15
New
Sep 22
First Quarter
Sep 29
Full

Hourly Weather History & Observations

Time (PDT) Temp. Dew Point Humidity Pressure Visibility Wind Dir Wind Speed Gust Speed Precip Events Conditions
12:53 AM 55.9 °F 46.0 °F 69% 30.15 in 10.0 mi Calm Calm - N/A   Clear
1:53 AM 55.0 °F 46.9 °F 74% 30.15 in 10.0 mi Calm Calm - N/A   Clear
2:53 AM 52.0 °F 46.0 °F 80% 30.14 in 10.0 mi Calm Calm - N/A   Clear
3:53 AM 53.1 °F 46.9 °F 80% 30.15 in 10.0 mi Calm Calm - N/A   Clear
4:53 AM 51.1 °F 48.0 °F 89% 30.15 in 8.0 mi Calm Calm - N/A   Clear
5:53 AM 51.1 °F 48.0 °F 89% 30.16 in 9.0 mi Calm Calm - N/A   Clear
6:25 AM 51.8 °F 48.2 °F 88% 30.16 in 8.0 mi Calm Calm - N/A   Scattered Clouds
6:34 AM 51.8 °F 50.0 °F 94% 30.16 in 8.0 mi Calm Calm - N/A   Mostly Cloudy
6:53 AM 52.0 °F 50.0 °F 93% 30.16 in 7.0 mi Calm Calm - N/A   Overcast
7:53 AM 55.0 °F 52.0 °F 89% 30.17 in 7.0 mi NNE 3.5 mph - N/A   Overcast
8:53 AM 55.9 °F 52.0 °F 87% 30.18 in 8.0 mi North 4.6 mph - N/A   Overcast
9:53 AM 57.9 °F 51.1 °F 78% 30.19 in 9.0 mi North 5.8 mph - N/A   Mostly Cloudy
10:53 AM 60.1 °F 51.1 °F 72% 30.19 in 10.0 mi NNE 6.9 mph - N/A   Scattered Clouds
11:53 AM 64.0 °F 51.1 °F 63% 30.19 in 10.0 mi NNW 10.4 mph 17.3 mph N/A   Scattered Clouds
12:53 PM 66.0 °F 50.0 °F 56% 30.18 in 10.0 mi NNE 10.4 mph - N/A   Partly Cloudy
1:53 PM 66.9 °F 51.1 °F 57% 30.17 in 10.0 mi NNE 8.1 mph 16.1 mph N/A   Scattered Clouds
2:53 PM 69.1 °F 52.0 °F 54% 30.16 in 10.0 mi NNE 9.2 mph - N/A   Clear
3:53 PM 70.0 °F 50.0 °F 49% 30.14 in 10.0 mi North 11.5 mph - N/A   Clear
4:53 PM 69.1 °F 48.9 °F 49% 30.14 in 10.0 mi North 12.7 mph - N/A   Scattered Clouds
5:53 PM 70.0 °F 48.9 °F 47% 30.13 in 10.0 mi NNE 8.1 mph - N/A   Scattered Clouds
6:53 PM 68.0 °F 48.9 °F 50% 30.12 in 10.0 mi NNE 4.6 mph - N/A   Clear
7:53 PM 64.9 °F 48.9 °F 56% 30.13 in 10.0 mi NNE 3.5 mph - N/A   Partly Cloudy
8:53 PM 64.9 °F 48.0 °F 54% 30.14 in 10.0 mi NE 5.8 mph - N/A   Overcast
9:53 PM 63.0 °F 48.9 °F 60% 30.15 in 10.0 mi NE 5.8 mph - N/A   Clear
10:53 PM 63.0 °F 46.9 °F 56% 30.15 in 10.0 mi NNE 4.6 mph - N/A   Clear
11:53 PM 62.1 °F 48.0 °F 60% 30.15 in 10.0 mi NNE 5.8 mph - N/A   Clear